Regional Weather Roundup
Issued by NWS

Home | Current Version | Previous Version | Text Only | Print | Product List | Glossary Off
Versions: 1 2 3 4 5 6 7 8 9 10 11 12 13 14 15 16 17 18 19 20 21 22 23 24 25 26 27 28 29 30 31 32 33 34 35 36 37 38 39 40 41 42 43 44 45 46 47 48 49 50

254
ASUS45 KCYS 251610
RWRWY

WYOMING REGIONAL WEATHER ROUNDUP
NATIONAL WEATHER SERVICE CHEYENNE WY
1000 AM MDT SUN JUN 25 2017

NOTE:  "FAIR" INDICATES FEW OR NO CLOUDS BELOW 12,000 FEET
WITH NO SIGNIFICANT WEATHER AND/OR OBSTRUCTIONS TO VISIBILITY.

WYZ001-251700-
YELLOWSTONE NATIONAL PARK

CITY           SKY/WX    TMP DP  RH WIND       PRES   REMARKS
LK YELLOWSTONE   N/A     53  38  56 E5        30.50S
W YELLOWSTONE  NOT AVBL

$$
WYZ002>013-054>058-071-098>099-251700-
NORTHERN WYOMING

CITY           SKY/WX    TMP DP  RH WIND       PRES   REMARKS
JACKSON        SUNNY     59  37  44 CALM      30.42F
CODY           FAIR      64  33  31 VRB3      30.39F
GREYBULL       FAIR      68  33  27 NW5       30.32F
WORLAND        FAIR      67  40  37 NE6       30.33F
SHERIDAN       FAIR      67  43  41 CALM      30.33F
BUFFALO        FAIR      66  36  32 N6        30.37S
GILLETTE       FAIR      66  38  35 VRB6      30.33F
NEWCASTLE      FAIR      61  32  33 S10       30.37F

$$
WYZ014>020-022>026-101>103-251700-
CENTRAL WYOMING

CITY           SKY/WX    TMP DP  RH WIND       PRES   REMARKS
BIG PINEY      FAIR      61  38  42 S8        30.45S
PINEDALE       FAIR      61  36  39 N7        30.45S
DUBOIS         FAIR      55  32  41 CALM      30.45F
LANDER         FAIR      62  37  39 NW7       30.38F
RIVERTON       FAIR      63  34  33 VRB3      30.39F
CASPER         FAIR      65  35  33 VRB7      30.37S
DOUGLAS        FAIR      66  36  32 S15       30.37F

$$
WYZ021-027>030-104>119-251700-
SOUTHERN WYOMING

CITY           SKY/WX    TMP DP  RH WIND       PRES   REMARKS
EVANSTON       FAIR      63  38  39 NE8       30.42S
KEMMERER         N/A     63  32  31 E5        30.45S
FORT BRIDGER   FAIR      63  33  32 E6        30.46S
ROCK SPRINGS   FAIR      64  34  32 NE7       30.42F
DIXON          FAIR      66  35  32 W5        30.40S
RAWLINS        FAIR      61  36  39 VRB7      30.42F
SARATOGA       FAIR      63  41  45 N6        30.42F
LARAMIE        FAIR      61  44  53 SE9       30.41F
CHEYENNE       CLOUDY    58  43  57 SE6       30.41F
TORRINGTON     CLOUDY    64  36  35 S15       30.34F
PINE BLUFFS    CLOUDY    55  43  62 SE7       30.40F

$$




USA.gov is the U.S. government's official web portal to all federal, state and local government web resources and services.